{"data":{"norad_id":60505,"epoch":"2026-09-19T13:05:52.094112Z","epoch_age_seconds":96943,"freshness":"FRESH","line1":"1 60505U 24149AP  26262.54574183  .00032918  00000+0  65218-3 0  9998","line2":"2 60505  97.3654 348.3136 0002590 302.9954  57.1046 15.46991553116939","mean_motion":15.46991553,"eccentricity":0.000259,"inclination_deg":97.3654,"raan_deg":348.3136,"arg_perigee_deg":302.9954,"mean_anomaly_deg":57.1046,"bstar":0.00065218,"rev_number":11693,"period_min":93.083895461968,"perigee_km":423.77041615027,"apogee_km":427.29471698576,"semimajor_km":6803.669566568,"source":"CELESTRAK","updated_at":"2026-09-20T09:00:34.714235Z"}}